Weather History for Claxton, GA

Change the Weather History Date:

Tuesday, April 8, 2014

  Actual Average (KSAV) Record (KSAV)
Temperature  
Mean Temperature 62 °F 64 °F  
Max Temperature 71 °F 76 °F 90 °F (1999)
Min Temperature 53 °F 52 °F 28 °F (2007)
Degree Days  
Heating Degree Days 3 3  
Month to date heating degree days 31  
Since 1 July heating degree days 1758  
Cooling Degree Days 0 2  
Month to date cooling degree days 16  
Year to date cooling degree days 58  
Growing Degree Days 12 (Base 50)    
Moisture  
Dew Point 56 °F    
Average Humidity 76    
Maximum Humidity 100    
Minimum Humidity 56    
Precipitation  
Precipitation 0.00 in 0.10 in 2.26 in (1877)
Month to date precipitation 0.87  
Year to date precipitation 11.08  
Sea Level Pressure  
Sea Level Pressure 29.72 in    
Wind  
Wind Speed 5 mph (WSW)    
Max Wind Speed 14 mph    
Max Gust Speed 21 mph    
Visibility 10 miles    
Events Rain    
T = Trace of Precipitation, MM = Missing Value Source: NWS Daily Summary

Daily Weather History Graph

Daily Weather History Graph

Search for Another Location

Airport:

Trip Planner

Search our weather history database for the weather conditions in past years. The results will help you decide how hot, cold, wet, or windy it might be!

Date:

Astronomy

Apr. 08, 2014 Rise Set
Actual Time 7:06 AM EDT 7:52 PM EDT
Civil Twilight 6:42 AM EDT 8:17 PM EDT
Nautical Twilight 6:12 AM EDT 8:46 PM EDT
Astronomical Twilight 5:42 AM EDT 9:16 PM EDT
Moon 2:04 PM EDT (4/8) 2:58 AM EDT (4/8)
Length of Visible Light 13h 34m
Length of Day
12h 45m
Waxing Gibbous, 62% of the Moon is Illuminated
Apr 8
Waxing Gibbous
Apr 15
Full
Apr 22
Last Quarter
Apr 29
New
May 6
First Quarter

Hourly Weather History & Observations

Time (EDT) Temp. Dew Point Humidity Pressure Visibility Wind Dir Wind Speed Gust Speed Precip Events Conditions
12:15 AM - - N/A% 29.77 in 10.0 mi South 3.5 mph - N/A Rain Rain
12:35 AM - - N/A% 29.76 in 10.0 mi South 6.9 mph 16.1 mph N/A Rain Light Rain
12:55 AM - - N/A% 29.76 in 10.0 mi South 5.8 mph - N/A Rain Light Rain
1:15 AM - - N/A% 29.74 in 10.0 mi South 8.1 mph - N/A Rain Light Rain
1:35 AM - - N/A% 29.74 in 10.0 mi SSW 3.5 mph - N/A   Overcast
2:15 AM 68.0 °F 68.0 °F 100% 29.73 in 10.0 mi SW 4.6 mph - N/A   Overcast
2:35 AM 68.0 °F 68.0 °F 100% 29.71 in 10.0 mi WSW 3.5 mph - N/A   Overcast
2:55 AM 68.0 °F 68.0 °F 100% 29.71 in 10.0 mi Calm Calm - N/A   Overcast
3:15 AM - - N/A% 29.71 in 10.0 mi SSW 3.5 mph - N/A Rain Light Rain
3:35 AM - - N/A% 29.69 in 10.0 mi Calm Calm - N/A   Light Drizzle
3:55 AM - - N/A% 29.70 in 10.0 mi SW 4.6 mph - N/A Rain Light Rain
4:15 AM - - N/A% 29.71 in 10.0 mi SW 3.5 mph - N/A Rain Light Rain
4:35 AM - - N/A% 29.70 in 10.0 mi SW 3.5 mph - N/A Rain Light Rain
4:55 AM - - N/A% 29.71 in 7.0 mi SW 4.6 mph - N/A Rain Rain
5:15 AM - - N/A% 29.69 in 7.0 mi Calm Calm - N/A Rain Rain
5:35 AM - - N/A% 29.67 in 4.0 mi Calm Calm - N/A Rain Rain
5:55 AM - - N/A% 29.68 in 7.0 mi Calm Calm - N/A Rain Rain
6:15 AM - - N/A% 29.67 in 10.0 mi SW 3.5 mph - N/A   Mostly Cloudy
6:35 AM - - N/A% 29.71 in 10.0 mi West 12.7 mph 19.6 mph N/A   Overcast
6:55 AM 62.6 °F 62.6 °F 100% 29.75 in 10.0 mi West 12.7 mph 19.6 mph N/A   Overcast
7:15 AM 60.8 °F 60.8 °F 100% 29.75 in 10.0 mi West 5.8 mph - N/A   Overcast
7:35 AM 60.8 °F 60.8 °F 100% 29.74 in 10.0 mi WNW 6.9 mph - N/A   Overcast
7:55 AM 59.0 °F 59.0 °F 100% 29.75 in 10.0 mi WNW 5.8 mph - N/A   Overcast
8:15 AM 59.0 °F 59.0 °F 100% 29.76 in 10.0 mi West 6.9 mph - N/A   Mostly Cloudy
8:35 AM 59.0 °F 59.0 °F 100% 29.76 in 10.0 mi West 4.6 mph - N/A   Mostly Cloudy
8:55 AM 57.2 °F 57.2 °F 100% 29.77 in 10.0 mi West 3.5 mph - N/A   Mostly Cloudy
9:15 AM 57.2 °F 55.4 °F 94% 29.78 in 10.0 mi West 6.9 mph - N/A   Mostly Cloudy
9:35 AM 57.2 °F 55.4 °F 94% 29.77 in 10.0 mi West 3.5 mph - N/A   Scattered Clouds
9:55 AM 57.2 °F 55.4 °F 94% 29.77 in 10.0 mi West 4.6 mph - N/A   Clear
10:15 AM 59.0 °F 55.4 °F 88% 29.76 in 10.0 mi West 8.1 mph - N/A   Clear
10:35 AM 59.0 °F 53.6 °F 82% 29.76 in 10.0 mi West 5.8 mph - N/A   Clear
10:55 AM 60.8 °F 53.6 °F 77% 29.76 in 10.0 mi WSW 4.6 mph - N/A   Clear
11:15 AM 60.8 °F 53.6 °F 77% 29.75 in 10.0 mi WSW 4.6 mph - N/A   Clear
11:35 AM 62.6 °F 55.4 °F 77% 29.75 in 10.0 mi West 4.6 mph - N/A   Clear
11:55 AM 64.4 °F 57.2 °F 77% 29.75 in 10.0 mi West 10.4 mph - N/A   Scattered Clouds
12:15 PM 64.4 °F 59.0 °F 83% 29.74 in 10.0 mi WSW 6.9 mph - N/A   Mostly Cloudy
12:35 PM 66.2 °F 57.2 °F 73% 29.74 in 10.0 mi WSW 8.1 mph 16.1 mph N/A   Clear
12:55 PM 68.0 °F 55.4 °F 64% 29.72 in 10.0 mi WSW 5.8 mph 16.1 mph N/A   Clear
1:15 PM 68.0 °F 57.2 °F 68% 29.72 in 10.0 mi SW 8.1 mph - N/A   Clear
1:35 PM 69.8 °F 57.2 °F 64% 29.71 in 10.0 mi West 5.8 mph - N/A   Clear
1:55 PM 69.8 °F 55.4 °F 60% 29.70 in 10.0 mi West 12.7 mph 18.4 mph N/A   Clear
2:15 PM 71.6 °F 55.4 °F 57% 29.70 in 10.0 mi WSW 10.4 mph - N/A   Clear
2:35 PM 69.8 °F 55.4 °F 60% 29.69 in 10.0 mi West 10.4 mph - N/A   Clear
2:55 PM 69.8 °F 53.6 °F 56% 29.69 in 10.0 mi West 12.7 mph 18.4 mph N/A   Clear
3:15 PM 69.8 °F 55.4 °F 60% 29.68 in 10.0 mi WSW 8.1 mph - N/A   Clear
3:35 PM 69.8 °F 55.4 °F 60% 29.66 in 10.0 mi West 6.9 mph - N/A   Clear
3:55 PM 71.6 °F 55.4 °F 57% 29.66 in 10.0 mi WNW 13.8 mph 20.7 mph N/A   Clear
4:15 PM 69.8 °F 53.6 °F 56% 29.66 in 10.0 mi WSW 9.2 mph - N/A   Clear
4:35 PM 69.8 °F 53.6 °F 56% 29.66 in 10.0 mi West 13.8 mph 18.4 mph N/A   Clear
4:55 PM 69.8 °F 53.6 °F 56% 29.66 in 10.0 mi West 5.8 mph - N/A   Clear
5:15 PM 69.8 °F 53.6 °F 56% 29.66 in 10.0 mi West 8.1 mph 18.4 mph N/A   Clear
5:35 PM 69.8 °F 53.6 °F 56% 29.66 in 10.0 mi West 9.2 mph - N/A   Clear
5:55 PM 68.0 °F 53.6 °F 60% 29.66 in 10.0 mi West 4.6 mph - N/A   Clear
6:15 PM 68.0 °F 53.6 °F 60% 29.67 in 10.0 mi WSW 4.6 mph - N/A   Clear
6:35 PM 68.0 °F 53.6 °F 60% 29.68 in 10.0 mi West 6.9 mph - N/A   Clear
6:55 PM 68.0 °F 53.6 °F 60% 29.68 in 10.0 mi West 3.5 mph - N/A   Clear
7:15 PM 68.0 °F 53.6 °F 60% 29.69 in 10.0 mi West 5.8 mph - N/A   Scattered Clouds
7:35 PM 68.0 °F 53.6 °F 60% 29.69 in 10.0 mi West 11.5 mph 18.4 mph N/A   Scattered Clouds
7:55 PM 66.2 °F 53.6 °F 64% 29.70 in 10.0 mi West 8.1 mph - N/A   Scattered Clouds
8:15 PM 64.4 °F 53.6 °F 68% 29.71 in 10.0 mi West 8.1 mph - N/A   Scattered Clouds
8:35 PM 64.4 °F 51.8 °F 64% 29.72 in 10.0 mi West 5.8 mph - N/A   Scattered Clouds
8:55 PM 62.6 °F 51.8 °F 68% 29.73 in 10.0 mi West 3.5 mph - N/A   Clear
9:15 PM 62.6 °F 51.8 °F 68% 29.74 in 10.0 mi West 5.8 mph - N/A   Clear
9:35 PM 60.8 °F 51.8 °F 72% 29.75 in 10.0 mi West 4.6 mph - N/A   Clear
9:55 PM 60.8 °F 51.8 °F 72% 29.75 in 10.0 mi West 4.6 mph - N/A   Clear
10:15 PM 59.0 °F 51.8 °F 77% 29.75 in 10.0 mi West 3.5 mph - N/A   Clear
10:35 PM 59.0 °F 53.6 °F 82% 29.75 in 10.0 mi Calm Calm - N/A   Clear
10:55 PM 55.4 °F 55.4 °F 100% 29.75 in 10.0 mi Calm Calm - N/A   Clear
11:15 PM 55.4 °F 55.4 °F 100% 29.76 in 10.0 mi Calm Calm - N/A   Clear
11:35 PM 53.6 °F 53.6 °F 100% 29.76 in 10.0 mi Calm Calm - N/A   Clear
11:55 PM 53.6 °F 53.6 °F 100% 29.77 in 10.0 mi Calm Calm - N/A   Clear